Tracking 29892 objects as of 21-Nov-2024
HD Live streaming from Space Station
objects crossing your sky now

ONEWEB-0262

Track ONEWEB-0262 now!
10-day predictions
ONEWEB-0262 is classified as:


NORAD ID: 48980
Int'l Code: 2021-061P
Perigee: 1,204.2 km
Apogee: 1,205.7 km
Inclination: 87.9 °
Period: 109.4 minutes
Semi major axis: 7575 km
RCS: Unknown
Launch date: July 1, 2021
Source: United Kingdom (UK)
Launch site: VOSTOCHNY COSMODROME (VOSTO)
Your satellite tracking list
Your tracking list is empty




NASA's NSSDC Master Catalog

Two Line Element Set (TLE):
1 48980U 21060P   24325.03441975 -.00000169  00000-0 -47528-3 0  9994
2 48980  87.9082 343.1528 0000998  77.8348 282.2894 13.16588336164071
Source of the keplerian elements: AFSPC